Vertical_Velocity
-6 -1 3 6 11 -6 -2 0 12 2 0 0 -1 0 1 2 0 1 1 1 1 0 2 1 0 -1 -0 -0 -0 -1 -0 -1 2 -3 -0 -4 -0 -2 -0 -3 -2 -4 -3
92 15 -3 2 8 14 -4 1 1 1 0 1 1 2 2 1 -1 1 1 2 0 0 -0 0 1 -0 0 -0 2 -1 -2 -0 1 1 -3 1 -2 -7 -1 -0 -2 -2 -0
-2 -5 -8 1 1 2 15 -2 -3 -1 1 -2 -0 2 0 -0 -1 1 -1 -0 0 1 -1 1 -1 -1 -0 -2 -0 0 -1 -2 -0 -0 2 -1 -3 -4 -1 -3 -1 -2 -1
-12 51 -13 30 -0 14 4 7 3 -4 -0 1 -0 2 -0 -0 -1 1 1 0 -1 -2 -1 -1 0 0 -2 -1 -1 -1 -1 -1 -1 1 2 2 -3 -4 -2 -4 0 0 0
-7 -3 0 -0 -1 -1 3 4 -1 -3 -4 -2 0 -1 0 0 -1 0 1 -1 -3 -1 1 -0 -0 -1 -1 0 -1 0 -1 -2 -1 0 2 3 0 -2 -5 -4 -0 -3 1
-6 19 13 -1 2 4 1 -1 1 -1 1 -0 -1 1 1 -1 -1 0 -1 0 -1 -1 1 -0 1 -1 0 -3 0 -0 -1 -2 0 -2 1 3 -1 -1 -1 -3 -2 -3 7
1 3 -1 6 6 3 2 -1 -1 -0 1 1 1 1 0 -2 1 1 -3 -0 -1 0 1 -0 -2 4 -2 1 -0 -1 1 -1 -2 -2 1 2 3 -5 3 -2 -3 -3 1
6 -9 18 4 2 58 6 2 -0 2 2 0 1 0 -0 -2 -0 -1 -2 0 1 1 -0 -1 -4 2 -0 0 -3 1 1 -3 1 -4 -1 1 1 -1 -2 -0 -2 -2 -1
14 1 -2 10 6 9 3 2 5 -0 0 1 -0 1 -0 1 -3 -3 0 -3 -1 1 -0 -0 -2 -2 -0 -3 -3 -1 -4 3 -1 -2 -2 -1 2 4 -1 -5 2 -7 2
5 2 9 -3 -3 10 24 6 1 1 -1 -0 -1 -0 0 -4 -2 0 -1 -4 -4 1 -2 0 -0 -0 -3 -3 -1 -1 -0 5 -0 -2 -1 1 1 4 -1 -6 -3 0 -6
2 4 -4 -0 8 2 15 -3 6 -2 -0 -0 -2 -2 0 0 -1 1 2 -3 -2 -1 -0 -2 -0 -2 0 -3 -1 -1 1 -2 -2 -5 1 6 -5 1 3 -5 -7 -2 -1
0 1 2 1 -5 1 -1 1 3 2 1 -3 -3 -3 -1 -1 -0 -2 -3 -3 -2 2 -0 -0 1 -0 -2 -3 -3 1 -3 -5 2 2 -1 1 2 -1 -3 0 -3 -0 -2
1 1 1 2 1 -1 -1 -1 -0 -1 2 -0 3 2 -4 -2 -2 -8 3 -3 -3 -2 -1 1 -1 0 -0 -2 -2 -5 -5 -2 -1 -4 -1 4 -0 -3 -1 1 -3 -0 -1
-0 0 1 2 2 2 1 1 -2 -1 -2 -2 -2 -1 2 1 -4 -9 2 -1 1 -3 -0 -0 3 0 -3 -0 -3 -3 -2 -2 -1 -1 1 -0 1 -2 -1 -1 1 -2 -1
-2 -2 -1 -0 -1 -2 -1 -2 -3 -3 -1 -1 -3 -1 -0 -0 -8 -2 3 -3 -4 -3 -0 0 -4 -2 -2 0 -1 -3 -7 -5 -4 -0 -2 1 -0 0 0 -5 -0 -2 -0
-1 -0 -1 -3 -1 0 0 -0 0 -1 -1 -2 -3 -1 -2 -3 -3 0 -6 0 3 2 -8 -2 -1 -3 -1 -1 -3 -0 -4 -3 -2 -5 -1 -1 1 1 -1 -3 -4 -4 -3
-1 -2 -1 -0 0 -1 -2 -1 -2 -2 -2 -1 -0 -1 -1 1 -3 -3 1 -2 2 -11 -4 -5 -2 -1 -1 -1 -2 -3 -1 -4 -6 -2 -5 -2 -2 1 -2 -2 -2 -5 0
-1 2 0 -1 -1 -0 -1 -0 -1 1 -2 -1 -1 -2 -0 -2 1 2 0 -0 -2 -2 -7 3 -2 -4 -1 -1 -2 -1 -2 2 -3 -4 -3 -3 -2 -4 -2 -2 -3 -3 -1
-6 -4 -2 -1 1 1 -0 -1 0 0 2 1 -1 -2 0 -1 1 -1 0 -1 -2 -2 -4 -1 2 -1 -1 -1 -2 -3 0 0 -0 -1 -2 -2 1 -2 -3 -1 -2 1 -3
-1 -2 -2 -6 -6 -1 1 -0 1 -2 -2 -0 0 -0 0 2 2 1 1 -0 0 2 -2 -2 1 1 -0 -1 -1 -1 -3 -0 1 -2 -2 -0 0 -2 -4 2 -0 -1 -0
0 1 -0 1 -2 -2 -3 -4 -2 -3 -2 -4 -1 -1 -1 1 -2 -1 0 1 -1 -1 -0 -0 -2 -1 -0 1 2 0 -3 -0 1 4 0 -1 -2 -0 0 -2 -3 1 6
-1 -3 -3 -1 -1 -0 -0 2 -2 -2 -1 -1 -3 -1 -0 -1 -2 2 -2 -1 0 -1 -1 -1 0 -1 0 2 1 4 -2 -1 -0 2 -0 0 2 -2 -1 -0 2 2 2
-0 -0 -1 -1 -2 -4 -3 -2 1 4 2 -2 -1 -2 -3 -5 2 -1 1 0 3 -0 2 1 2 -2 -1 -0 0 1 3 0 -1 -2 -1 0 -4 5 -2 -7 -3 -0 2
-0 -1 -1 0 1 -0 0 -0 -0 -2 -2 0 3 -1 1 3 -2 1 -5 -3 1 2 1 -0 -0 1 1 1 -0 0 1 1 -1 2 -0 0 -1 -1 5 1 -7 -1 -0
-1 -1 -1 -1 -0 -2 -2 -1 0 -1 -1 0 -2 0 2 1 0 1 1 -3 1 -2 -3 -2 -2 -1 1 -1 2 1 -1 -1 3 -1 4 -1 2 2 3 -1 1 -4 2
0 -0 -0 -1 -1 -3 -1 -1 -1 -1 -1 0 -3 -5 -1 0 -2 -0 0 7 1 -1 -1 -2 -0 1 -2 -1 -1 -2 2 0 0 -0 -0 3 -0 3 0 -1 -1 -3 0
Height
5707 5714 5721 5729 5736 5741 5749 5757 5765 5769 5774 5780 5786 5791 5796 5800 5805 5810 5814 5818 5822 5825 5829 5832 5834 5837 5840 5841 5843 5843 5844 5845 5845 5844 5843 5841 5840 5837 5836 5834 5832 5830 5828
5682 5700 5710 5719 5726 5732 5738 5745 5751 5757 5764 5770 5776 5781 5787 5792 5797 5801 5805 5809 5813 5817 5820 5823 5826 5829 5831 5833 5835 5836 5837 5837 5837 5837 5835 5835 5833 5830 5829 5828 5825 5823 5822
5684 5692 5699 5709 5716 5720 5728 5734 5741 5747 5754 5760 5766 5772 5777 5782 5787 5792 5796 5800 5804 5808 5811 5815 5817 5819 5822 5824 5826 5828 5828 5828 5829 5829 5828 5826 5825 5823 5822 5820 5819 5816 5815
5672 5671 5689 5694 5700 5703 5714 5723 5729 5735 5743 5750 5756 5762 5767 5771 5776 5781 5786 5790 5794 5798 5802 5805 5808 5811 5813 5815 5817 5818 5819 5819 5820 5820 5820 5819 5817 5815 5814 5812 5812 5810 5809
5658 5667 5675 5681 5690 5696 5703 5710 5716 5723 5730 5738 5744 5749 5755 5760 5765 5770 5775 5780 5783 5787 5791 5795 5798 5800 5803 5804 5807 5808 5809 5809 5810 5811 5811 5811 5809 5807 5805 5804 5803 5802 5801
5644 5650 5659 5668 5677 5685 5690 5697 5704 5711 5718 5725 5731 5737 5743 5748 5753 5758 5763 5768 5772 5776 5780 5783 5787 5789 5791 5793 5796 5797 5798 5799 5800 5800 5801 5801 5800 5799 5797 5796 5794 5793 5794
5632 5642 5649 5655 5663 5667 5677 5683 5691 5698 5705 5712 5718 5724 5730 5735 5741 5746 5751 5756 5761 5765 5768 5771 5774 5778 5780 5783 5785 5786 5788 5788 5789 5789 5790 5791 5791 5789 5788 5787 5786 5784 5784
5615 5627 5632 5639 5649 5654 5661 5669 5677 5684 5691 5698 5704 5710 5715 5721 5727 5733 5738 5743 5748 5752 5756 5759 5761 5765 5767 5770 5772 5775 5777 5776 5778 5778 5778 5779 5779 5778 5777 5777 5776 5775 5774
5600 5608 5617 5627 5633 5640 5647 5655 5663 5669 5676 5683 5689 5695 5701 5707 5713 5719 5724 5730 5734 5739 5742 5745 5749 5751 5754 5757 5758 5762 5765 5765 5766 5766 5767 5767 5768 5768 5767 5766 5766 5764 5764
5584 5592 5601 5611 5618 5624 5631 5638 5646 5653 5661 5667 5673 5679 5685 5690 5697 5704 5709 5715 5720 5724 5728 5731 5735 5738 5740 5742 5745 5748 5752 5753 5753 5754 5754 5755 5756 5756 5755 5754 5753 5753 5752
5567 5575 5584 5594 5601 5609 5616 5622 5632 5636 5643 5650 5657 5662 5668 5674 5682 5688 5693 5698 5704 5709 5713 5716 5719 5722 5725 5727 5730 5733 5737 5737 5739 5740 5741 5743 5742 5743 5742 5741 5740 5740 5741
5551 5559 5567 5575 5584 5592 5599 5606 5613 5620 5627 5633 5639 5646 5652 5658 5664 5670 5675 5680 5686 5691 5695 5699 5703 5706 5709 5712 5715 5718 5720 5722 5724 5726 5727 5728 5728 5728 5727 5727 5727 5728 5727
5532 5541 5549 5557 5565 5573 5580 5588 5595 5601 5608 5615 5623 5629 5635 5640 5646 5652 5659 5663 5669 5673 5678 5683 5686 5690 5693 5696 5698 5701 5703 5705 5708 5709 5711 5713 5712 5713 5713 5713 5713 5713 5713
5514 5523 5531 5538 5546 5553 5560 5567 5575 5582 5589 5596 5603 5610 5616 5621 5626 5633 5640 5645 5649 5655 5660 5664 5668 5672 5675 5679 5681 5684 5686 5689 5692 5694 5696 5696 5697 5697 5698 5698 5699 5698 5698
5495 5503 5510 5518 5525 5533 5540 5547 5554 5562 5569 5576 5583 5590 5596 5601 5607 5614 5620 5626 5631 5635 5640 5644 5648 5653 5657 5661 5664 5666 5668 5671 5674 5677 5679 5680 5680 5681 5682 5682 5683 5683 5684
5477 5484 5491 5498 5505 5512 5519 5526 5533 5540 5548 5555 5562 5569 5575 5581 5588 5594 5599 5605 5611 5614 5619 5624 5629 5633 5638 5641 5644 5648 5651 5652 5655 5657 5660 5662 5663 5664 5664 5665 5666 5666 5667
5459 5466 5473 5478 5485 5492 5498 5505 5512 5520 5526 5533 5540 5547 5554 5561 5566 5573 5579 5584 5588 5592 5599 5604 5609 5613 5617 5621 5624 5627 5631 5633 5635 5637 5639 5641 5643 5645 5646 5646 5647 5649 5650
5442 5448 5454 5459 5466 5472 5479 5485 5492 5499 5505 5512 5518 5525 5532 5538 5545 5550 5556 5561 5566 5570 5577 5583 5588 5592 5596 5600 5603 5607 5610 5613 5615 5617 5619 5620 5622 5624 5626 5628 5628 5629 5630
5423 5430 5436 5442 5448 5453 5459 5465 5471 5477 5484 5491 5497 5504 5510 5517 5522 5527 5533 5539 5544 5550 5556 5561 5566 5571 5575 5579 5582 5586 5589 5592 5595 5597 5599 5601 5601 5602 5604 5606 5608 5609 5609
5405 5411 5417 5424 5430 5435 5441 5447 5452 5457 5463 5469 5475 5482 5488 5494 5500 5506 5511 5517 5523 5528 5534 5539 5544 5550 5554 5558 5562 5566 5570 5573 5575 5576 5578 5580 5581 5582 5584 5586 5588 5589 5591
5387 5391 5397 5403 5408 5414 5420 5426 5432 5438 5444 5449 5455 5460 5466 5472 5477 5483 5489 5495 5500 5507 5512 5518 5523 5528 5533 5538 5542 5546 5550 5553 5555 5558 5560 5562 5563 5565 5567 5568 5570 5574 5575
5370 5374 5378 5383 5388 5393 5398 5403 5410 5415 5422 5429 5434 5439 5445 5451 5456 5461 5468 5473 5478 5484 5491 5496 5501 5507 5512 5517 5522 5526 5530 5534 5537 5540 5543 5545 5547 5549 5550 5552 5553 5556 5558
5349 5354 5359 5364 5368 5372 5377 5382 5387 5391 5398 5405 5409 5416 5423 5429 5434 5439 5446 5452 5457 5462 5468 5474 5479 5484 5489 5495 5500 5505 5510 5514 5517 5521 5525 5527 5530 5532 5533 5535 5536 5539 5541
5331 5334 5339 5343 5347 5352 5357 5362 5367 5371 5376 5381 5386 5392 5398 5404 5411 5417 5424 5430 5435 5440 5446 5451 5457 5462 5467 5472 5478 5484 5489 5493 5497 5501 5505 5509 5511 5514 5516 5516 5519 5522 5524
5313 5316 5320 5324 5327 5331 5335 5340 5344 5349 5355 5360 5366 5370 5375 5381 5387 5392 5397 5405 5412 5416 5423 5429 5435 5439 5444 5450 5456 5462 5466 5471 5476 5480 5484 5487 5491 5494 5497 5498 5499 5503 5505
5294 5297 5300 5304 5308 5312 5316 5321 5326 5330 5335 5339 5344 5350 5354 5360 5365 5370 5375 5380 5387 5393 5399 5405 5411 5416 5421 5427 5431 5437 5442 5447 5453 5457 5463 5466 5470 5475 5478 5480 5482 5485 5488